GW2921 Weather Reports


time (UTC)temp
C
wind
direction
speed
KPH
gust
KPH
rain 1hr
cm
rain 24hr
cm
rain mn
cm
humidity
%
barometer
mb
20260510191552 22 360 1.6 9.7 0.00 0.00 0.00 44 1017.2
20260510190051 23 292 1.6 11.3 0.00 0.00 0.00 41 1017.1
20260510184558 23 125 3.2 19.3 0.00 0.00 0.00 44 1017.2
20260510183056 23 142 3.2 12.9 0.00 0.00 0.00 45 1017.2
20260510181606 23 146 1.6 8.0 0.00 0.00 0.00 46 1017.2
20260510180106 22 235 3.2 11.3 0.00 0.00 0.00 46 1017.1
20260510174549 21 141 1.6 16.1 0.00 0.00 0.00 49 1017.3
20260510173051 21 360 3.2 12.9 0.00 0.00 0.00 51 1017.7
20260510171601 21 175 1.6 8.0 0.00 0.00 0.00 51 1017.8
20260510170051 21 167 4.8 16.1 0.00 0.00 0.00 51 1018.0
20260510164600 21 360 1.6 9.7 0.00 0.00 0.00 52 1018.0
20260510163056 21 0 3.2 12.9 0.00 0.00 0.00 53 1018.1
20260510161605 21 360 3.2 9.7 0.00 0.00 0.00 50 1018.1
20260510160054 21 155 4.8 14.5 0.00 0.00 0.00 49 1018.0
20260510154557 21 360 4.8 14.5 0.00 0.00 0.00 50 1018.0
20260510153053 20 209 3.2 6.4 0.00 0.00 0.00 52 1018.0
20260510151555 20 346 3.2 17.7 0.00 0.00 0.00 50 1018.0
20260510150120 20 167 3.2 12.9 0.00 0.00 0.00 57 1018.0
20260510144603 19 0 1.6 12.9 0.00 0.00 0.00 59 1018.0
20260510143048 19 112 1.6 11.3 0.00 0.00 0.00 56 1018.0
20260510141548 19 0 1.6 9.7 0.00 0.00 0.00 61 1017.8
20260510140049 18 0 0.0 4.8 0.00 0.00 0.00 64 1017.8
20260510134554 17 205 3.2 8.0 0.00 0.00 0.00 65 1017.8
20260510133049 16 0 0.0 4.8 0.00 0.00 0.00 71 1017.9
20260510131548 15 360 1.6 6.4 0.00 0.00 0.00 74 1018.0
20260510130052 15 360 1.6 4.8 0.00 0.00 0.00 77 1017.9
20260510124559 13 0 0.0 4.8 0.00 0.00 0.00 85 1017.9
20260510123057 11 0 0.0 4.8 0.00 0.00 0.00 91 1017.9
20260510121548 9 0 0.0 1.6 0.00 0.00 0.00 94 1017.8
20260510120049 8 0 0.0 1.6 0.00 0.00 0.00 95 1017.4
20260510114553 7 0 0.0 3.2 0.00 0.00 0.00 95 1017.3
20260510113051 7 242 0.0 3.2 0.00 0.00 0.00 94 1017.1
20260510111553 6 239 1.6 4.8 0.00 0.00 0.00 94 1017.1
20260510110050 6 252 1.6 4.8 0.00 0.00 0.00 94 1016.7
20260510104548 6 251 1.6 3.2 0.00 0.00 0.00 94 1016.4
20260510103049 6 250 1.6 4.8 0.00 0.00 0.00 94 1016.4
20260510101547 6 251 1.6 3.2 0.00 0.00 0.00 94 1016.2
20260510100053 6 261 1.6 3.2 0.00 0.00 0.00 94 1016.2
20260510094604 6 252 1.6 3.2 0.00 0.00 0.00 94 1016.2
20260510093139 6 252 0.0 3.2 0.00 0.00 0.00 94 1016.1
20260510091549 6 0 0.0 3.2 0.00 0.00 0.00 94 1016.1
20260510090053 6 0 0.0 1.6 0.00 0.00 0.00 94 1015.9
20260510084547 6 252 0.0 1.6 0.00 0.00 0.00 94 1015.7
20260510083104 6 252 0.0 3.2 0.00 0.00 0.00 94 1015.6
20260510081549 6 252 1.6 3.2 0.00 0.00 0.00 94 1015.5
20260510080053 6 269 1.6 3.2 0.00 0.00 0.00 93 1015.4
20260510074553 6 257 1.6 3.2 0.00 0.00 0.00 93 1015.2
20260510073056 6 252 0.0 3.2 0.00 0.00 0.00 93 1015.0
20260510071550 6 0 1.6 3.2 0.00 0.00 0.00 93 1015.0
20260510070051 7 252 1.6 3.2 0.00 0.00 0.00 93 1015.0
20260510064556 7 254 1.6 3.2 0.00 0.00 0.00 93 1015.0
20260510063047 7 248 3.2 4.8 0.00 0.00 0.00 93 1015.0
20260510061558 7 281 1.6 3.2 0.00 0.00 0.00 92 1015.0
20260510060052 7 322 1.6 3.2 0.00 0.00 0.00 92 1015.0
20260510054550 8 322 0.0 3.2 0.00 0.00 0.00 92 1014.9
20260510053059 8 322 0.0 1.6 0.00 0.00 0.00 92 1014.9
20260510051612 8 0 0.0 1.6 0.00 0.00 0.00 91 1015.0
20260510050058 8 0 0.0 1.6 0.00 0.00 0.00 91 1015.1
20260510043048 8 0 0.0 0.0 0.00 0.00 0.00 90 1015.0
20260510041556 8 0 0.0 1.6 0.00 0.00 0.00 90 1015.0
20260510040056 9 0 1.6 3.2 0.00 0.00 0.00 89 1015.0
20260510034555 9 0 0.0 0.0 0.00 0.00 0.00 88 1014.9
20260510033107 9 0 0.0 3.2 0.00 0.00 0.00 88 1014.8
20260510031551 10 0 0.0 3.2 0.00 0.00 0.00 87 1014.8
20260510024550 10 0 0.0 0.0 0.00 0.00 0.00 85 1014.8
20260510023050 10 0 0.0 1.6 0.00 0.00 0.00 85 1014.9
20260510021548 10 0 0.0 0.0 0.00 0.00 0.00 84 1014.5
20260510020050 11 0 0.0 0.0 0.00 0.00 0.00 83 1014.4
20260510014550 11 0 0.0 0.0 0.00 0.00 0.00 81 1014.0
20260510013051 11 0 0.0 0.0 0.00 0.00 0.00 80 1013.7
20260510011549 12 0 0.0 0.0 0.00 0.00 0.00 78 1013.5
20260510010053 12 0 0.0 0.0 0.00 0.00 0.00 76 1013.2
20260510004553 13 0 0.0 0.0 0.00 0.00 0.00 73 1013.0
20260510003050 13 0 0.0 0.0 0.00 0.00 0.00 71 1012.9
20260510001548 15 0 0.0 0.0 0.00 0.00 0.00 68 1012.9
20260510000050 15 0 0.0 1.6 0.00 0.00 0.00 65 1012.7
20260509234550 16 0 0.0 1.6 0.00 0.00 0.00 64 1012.5
20260509233050 16 0 0.0 3.2 0.00 0.00 0.00 62 1012.2
20260509231554 16 113 0.0 4.8 0.00 0.00 0.00 60 1012.1
20260509230058 17 0 1.6 4.8 0.00 0.00 0.00 57 1012.1
20260509224558 17 215 1.6 6.4 0.00 0.00 0.00 55 1012.1
20260509223052 17 0 0.0 11.3 0.00 0.00 0.00 57 1012.3
20260509221554 18 0 1.6 6.4 0.00 0.00 0.00 56 1012.3
20260509220100 18 0 0.0 9.7 0.00 0.00 0.00 55 1012.2
20260509214559 18 205 3.2 16.1 0.00 0.00 0.00 55 1012.2
20260509213127 18 360 0.0 12.9 0.00 0.00 0.00 58 1012.2
20260509211552 18 360 1.6 8.0 0.00 0.00 0.00 56 1012.1
20260509204550 18 122 1.6 4.8 0.00 0.00 0.00 55 1011.9